This is the latest recevied weather packets stored in our database for station/object KE9DBJ-13. If no packets are shown the sender has not sent any weather packets the latest 10 day(s).
| Time | Temp. | Humidity | Pressure | Rain* | Wind** | Luminosity | Snow |
|---|---|---|---|---|---|---|---|
| 1777498203 | 18.89° C | 55% | 1010.5 hPa | 0 mm | - | - | - |
| 1777497602 | 18.89° C | 54% | 1010.5 hPa | 0 mm | - | - | - |
| 1777497002 | 18.89° C | 57% | 1010.4 hPa | 0 mm | - | - | - |
| 1777496402 | 18.89° C | 55% | 1010.4 hPa | 0 mm | - | - | - |
| 1777495802 | 20° C | 52% | 1010.2 hPa | 0 mm | - | - | - |
| 1777495202 | 20.56° C | 54% | 1010.3 hPa | 0 mm | - | - | - |
| 1777494602 | 20° C | 58% | 1010.4 hPa | 0 mm | - | - | - |
| 1777494002 | 20° C | 59% | 1010.4 hPa | 0 mm | - | - | - |
| 1777493402 | 19.44° C | 60% | 1010.4 hPa | 0 mm | - | - | - |
| 1777492802 | 19.44° C | 61% | 1010.4 hPa | 0 mm | - | - | - |
| 1777492202 | 19.44° C | 62% | 1010.5 hPa | 0 mm | - | - | - |
| 1777491602 | 18.33° C | 65% | 1010.8 hPa | 0 mm | - | - | - |
| 1777491002 | 17.78° C | 67% | 1010.7 hPa | 0 mm | - | - | - |
| 1777490402 | 18.33° C | 68% | 1010.7 hPa | 0 mm | - | - | - |
| 1777489802 | 18.33° C | 66% | 1010.5 hPa | 0 mm | - | - | - |
| 1777489202 | 18.89° C | 67% | 1010.4 hPa | 0 mm | - | - | - |
| 1777488602 | 17.78° C | 70% | 1010.5 hPa | 0 mm | - | - | - |
| 1777488003 | 18.33° C | 69% | 1010.6 hPa | 0 mm | - | - | - |
| 1777487403 | 17.22° C | 75% | 1010.5 hPa | 0 mm | - | - | - |
| 1777486803 | 17.22° C | 71% | 1010.5 hPa | 0 mm | - | - | - |
| 1777486203 | 18.33° C | 76% | 1010.4 hPa | 0 mm | - | - | - |
| 1777485603 | 17.78° C | 75% | 1010.4 hPa | 0 mm | - | - | - |
| 1777485003 | 17.22° C | 78% | 1010.3 hPa | 0 mm | - | - | - |
| 1777484403 | 17.78° C | 75% | 1010.6 hPa | 0 mm | - | - | - |
| 1777483803 | 17.22° C | 76% | 1010.6 hPa | 0 mm | - | - | - |
* Rain latest hour (hover to see other rain measurements)
** Current wind speed in m/s (hover to see current wind gust speed)